Location: Mahannah Oil Field
(37.4664°N, 96.6003°W)
Time: 01:37:08
(UTC+00:00)

deb Explorer IX - Pass Details

Date: 23 January 2021
Orbit: 537 x 1102 km, 38.8° (Epoch: 25 February)

Event Time Altitude Azimuth Distance (km) Brightness Sun altitude
Rises 21:40:56 0° 195° (SSW) 3,858 ? 18.9°
Reaches altitude 10° 21:45:05 10° 174° (S) 2,840 ? 18.3°
Maximum altitude 21:48:44 15° 142° (SE) 2,410 ? 17.8°
Drops below altitude 10° 21:52:12 10° 109° (ESE) 2,670 ? 17.3°
Sets 21:55:52 0° 87° (E) 3,498 ? 16.7°
